Temperature
19 18 18 19 20 20 19 19 18 19 20 19 18 18 19 20 19 19 19 18 16 15 14 14 14 14 14 14 14 14 14 13 12 12 11 11 11 10 10 10 10 10 9 9
18 18 19 20 19 19 18 18 18 19 19 18 18 18 19 19 19 19 19 18 16 15 14 13 13 14 14 14 14 13 13 13 12 12 12 11 11 11 10 10 10 10 9 9
18 19 20 19 19 18 18 17 18 18 19 18 17 17 18 19 19 19 19 18 16 15 14 13 13 13 14 14 13 13 13 12 12 12 11 11 11 10 10 10 10 9 9 9
19 20 19 18 18 18 17 19 19 18 17 16 18 16 18 17 17 17 18 17 16 15 14 13 13 14 14 14 13 13 12 12 12 12 11 11 11 10 10 9 9 9 8 8
19 19 18 17 18 18 18 17 18 17 16 15 17 16 17 17 16 16 16 17 16 15 14 13 13 13 13 13 13 13 12 12 12 11 11 11 10 10 9 9 8 8 8 7
19 19 18 18 18 18 17 17 17 16 15 14 17 16 17 17 17 16 16 17 15 14 13 13 13 13 13 13 12 12 12 12 11 11 11 10 10 9 9 8 8 7 7 7
17 18 18 18 16 16 16 16 15 15 14 15 19 18 18 19 18 17 17 16 15 14 13 12 12 12 12 12 12 12 12 11 11 11 10 10 9 9 8 8 7 7 7 6
16 17 17 17 17 16 15 16 15 16 16 17 17 17 18 17 18 19 18 16 15 14 13 12 12 12 12 12 11 11 11 11 11 10 10 9 8 8 8 7 7 7 6 6
18 17 18 17 17 17 16 15 17 16 16 17 17 18 16 17 16 17 17 16 14 13 13 12 12 12 11 11 11 11 11 10 10 9 9 8 8 7 7 7 6 6 6 5
18 18 16 15 16 16 16 17 16 15 15 15 18 18 16 15 15 16 15 15 14 14 13 12 11 11 11 11 10 10 10 9 9 9 8 8 7 7 7 6 6 5 5 5
18 17 15 14 14 15 15 16 16 16 17 16 16 17 17 16 16 15 15 15 14 14 13 12 11 11 10 10 10 9 9 9 8 8 8 7 7 6 6 6 5 5 4 4
17 17 16 15 16 16 16 16 16 15 16 16 15 16 17 17 16 16 16 16 15 14 13 12 11 10 10 9 9 9 8 8 8 7 7 6 6 6 5 5 5 4 4 4
17 16 15 15 14 14 15 16 16 16 16 15 15 16 16 16 16 16 16 15 14 13 12 12 11 10 9 9 8 8 8 7 7 7 6 6 6 5 5 5 4 4 4 3
17 16 16 16 16 14 14 15 16 15 14 15 15 17 15 15 15 15 15 15 14 13 12 11 10 10 9 8 8 7 7 7 6 6 6 5 5 5 4 4 4 4 3 3
15 15 16 17 16 17 16 16 15 15 15 15 16 17 17 16 15 15 15 14 13 12 11 11 10 9 9 8 7 7 7 6 6 6 5 5 5 4 4 4 3 3 3 2
14 14 16 16 16 15 15 16 15 15 15 15 15 16 17 16 16 16 15 14 13 12 11 10 10 9 8 7 7 7 6 6 6 5 5 4 4 4 4 3 3 2 2 2
13 14 14 14 15 14 13 14 15 15 15 15 14 15 16 15 14 15 14 13 12 12 11 10 9 8 7 7 7 6 6 5 5 5 4 4 3 3 3 2 2 2 1 1
14 14 13 13 13 11 15 16 16 16 15 15 15 15 14 14 14 14 14 13 12 11 10 9 8 7 7 6 6 6 5 5 4 4 4 3 3 2 2 2 1 1 0 -0
12 14 12 11 12 13 15 14 14 14 14 15 15 14 14 13 12 12 12 12 11 10 9 8 7 7 6 6 5 5 5 4 4 3 3 2 2 2 1 1 1 0 -0 -1
11 12 12 11 11 11 15 13 14 14 12 15 14 13 12 10 8 9 11 10 9 9 8 7 7 6 6 5 5 4 4 4 3 3 2 2 2 1 1 0 -0 -1 -1 -2
10 11 10 10 10 11 14 12 13 12 13 13 14 13 12 10 9 10 10 9 8 8 7 6 6 6 5 5 4 4 3 3 2 2 2 1 1 1 0 -0 -1 -1 -2 -2
10 10 10 10 10 11 11 11 11 12 12 13 13 12 12 10 9 9 8 8 7 7 6 6 5 5 4 4 3 3 3 2 2 1 1 1 1 0 -0 -1 -1 -2 -2 -3
12 12 12 11 12 13 12 12 12 12 12 12 12 11 11 10 8 8 7 7 6 6 5 5 5 4 4 3 3 2 2 1 1 1 0 0 -0 -0 -1 -2 -2 -3 -3 -4
12 12 12 12 12 12 12 12 12 12 11 11 11 10 10 9 8 7 6 6 5 5 5 4 4 4 3 3 2 2 1 1 0 0 -0 -0 -1 -1 -1 -2 -3 -3 -4 -4
12 10 10 11 12 12 11 11 11 10 10 10 9 9 8 8 7 6 6 5 5 4 4 4 3 3 3 2 2 1 1 0 -0 -0 -1 -1 -2 -2 -2 -3 -3 -4 -4 -5
11 10 10 11 12 10 11 11 11 10 9 9 8 7 7 7 6 5 5 4 4 4 3 3 3 2 2 1 1 1 0 -0 -1 -1 -1 -2 -2 -3 -3 -3 -4 -4 -5 -5
Wind_Speed
8 6 8 9 8 6 7 9 11 9 1 2 8 11 9 6 7 8 8 9 9 9 9 8 8 9 9 8 9 8 7 6 5 4 4 3 1 1 1 2 4 5 6 7
8 11 12 8 2 3 6 9 11 9 1 2 8 12 9 7 9 9 10 10 11 10 9 8 9 8 8 8 8 8 7 7 6 4 3 2 2 1 1 0 2 4 5 6
14 6 3 4 4 5 8 10 10 8 6 6 7 9 8 7 7 8 10 11 11 11 10 9 9 9 8 8 7 7 8 7 7 5 4 2 1 1 0 1 1 3 5 5
11 10 6 5 7 7 8 5 4 5 5 5 5 5 5 10 9 9 9 10 11 10 10 9 9 9 8 7 7 8 8 8 6 5 4 2 1 1 0 0 1 3 5 5
7 6 6 8 8 8 3 3 2 5 6 7 7 7 6 12 12 12 11 11 11 11 10 10 9 9 9 7 6 7 8 7 5 4 4 2 2 1 1 2 2 3 3 4
11 3 6 4 1 1 3 1 5 5 4 6 10 10 5 11 15 16 13 12 12 11 11 10 9 9 8 6 6 6 7 6 5 4 3 3 2 2 3 3 3 3 3 3
10 9 6 4 4 2 4 4 4 5 5 7 3 5 5 6 11 15 16 15 13 12 11 10 10 9 8 8 6 6 7 5 4 4 3 2 1 1 2 3 3 4 4 4
10 10 14 9 8 7 9 7 5 4 3 0 1 5 1 6 5 8 14 16 14 12 11 10 10 9 9 8 7 6 6 5 4 3 2 1 2 1 2 3 4 4 4 4
7 5 5 6 6 5 7 8 5 4 7 5 6 6 4 4 4 5 11 14 14 12 11 11 10 9 9 8 6 6 5 4 3 2 1 1 1 2 3 4 4 4 5 5
7 2 6 4 1 4 5 3 4 4 4 5 7 7 7 8 8 8 10 12 12 12 11 10 9 9 8 7 6 5 4 3 2 1 1 1 2 3 3 4 6 6 6 6
8 5 7 5 9 9 7 4 5 4 5 3 4 2 3 9 11 11 10 11 12 12 11 10 9 8 8 7 6 4 3 2 2 0 1 2 3 3 4 5 6 6 6 7
8 4 5 6 4 1 8 9 8 5 5 5 3 3 3 6 7 9 10 10 11 11 10 9 9 8 7 7 6 5 3 2 2 1 1 3 4 4 5 6 6 6 7 7
8 5 5 4 1 4 5 8 9 6 4 4 4 3 2 5 6 7 9 10 9 10 9 8 8 8 7 6 5 4 3 2 1 1 3 4 5 5 5 6 6 7 8 8
3 5 7 4 1 7 6 9 10 7 5 6 9 6 6 7 8 8 9 10 10 10 9 8 7 6 6 5 4 3 2 1 1 2 4 5 5 5 6 7 7 8 8 9
2 4 8 4 2 2 5 9 12 12 11 8 8 8 5 7 9 9 10 10 10 9 9 8 7 5 5 4 3 2 1 1 1 3 4 5 5 6 6 7 8 8 9 10
4 4 4 4 3 2 5 7 10 12 12 13 13 13 4 3 5 7 9 10 9 9 8 8 6 5 4 3 2 1 1 1 2 4 5 6 6 7 7 8 8 9 9 9
7 5 3 3 3 1 7 10 13 10 10 9 12 9 1 3 5 6 7 9 9 8 8 7 6 4 3 2 2 1 1 2 3 5 6 6 7 7 8 8 9 9 9 10
7 6 3 2 3 7 7 1 3 7 10 10 8 4 4 5 5 4 5 8 8 8 7 6 5 4 3 2 1 0 1 3 5 6 7 7 7 8 8 9 9 10 9 9
1 5 4 4 5 8 6 4 4 4 6 7 8 5 6 8 5 1 4 7 7 8 7 6 4 3 2 1 1 1 3 5 6 7 8 7 7 8 9 9 10 9 9 9
2 1 4 5 5 7 3 3 2 2 6 4 5 6 9 9 4 4 7 9 9 8 6 5 3 2 1 1 0 2 5 6 7 7 7 7 7 8 10 10 10 9 9 10
4 3 5 6 6 7 2 5 5 5 5 1 4 6 9 7 5 6 9 8 8 7 5 4 2 1 1 1 1 4 6 7 8 7 7 7 8 9 10 10 9 10 10 10
9 8 7 6 6 9 6 8 7 5 3 2 3 5 7 8 8 8 8 7 6 5 4 3 1 1 2 2 3 6 7 7 7 7 8 9 9 9 9 10 10 9 10 10
8 8 6 8 8 2 8 6 4 4 3 3 4 5 8 8 7 7 6 6 5 4 3 1 1 3 4 4 4 7 8 7 7 8 9 9 10 9 9 9 10 9 9 9
5 2 2 3 4 6 6 4 4 3 3 5 6 7 7 7 7 7 5 4 3 2 2 1 2 4 5 5 6 7 8 8 8 9 9 9 9 10 9 8 8 8 8 9
6 7 4 5 3 4 6 6 6 5 5 6 6 6 6 7 7 5 4 3 2 1 1 1 3 5 7 7 8 8 8 8 8 9 9 9 9 9 9 9 8 10 9 12
5 7 7 6 4 5 5 6 7 7 7 7 7 6 6 6 6 5 3 2 2 1 1 3 5 6 8 8 9 9 8 8 9 9 9 8 8 8 8 10 11 15 17 23
Wind_Direction
194 222 236 244 247 277 317 309 302 299 269 222 256 262 250 201 187 185 158 134 119 111 105 98 94 91 89 91 100 107 111 109 107 103 110 118 143 178 198 232 254 268 269 266
220 228 243 256 329 323 289 283 282 286 148 214 268 270 253 205 196 177 158 141 132 123 114 107 101 94 93 95 100 105 107 102 94 96 101 100 101 96 108 290 275 283 282 274
230 226 183 207 212 242 256 256 270 292 318 257 257 274 230 177 160 149 147 138 135 136 130 119 108 99 91 87 91 99 99 96 95 98 95 86 81 336 293 246 237 255 268 269
242 238 195 211 232 235 262 279 283 298 300 284 225 277 197 166 162 165 159 145 140 131 125 121 114 105 99 95 95 99 99 98 99 103 98 101 95 58 337 320 269 270 266 260
228 193 188 221 237 238 242 58 308 273 268 278 257 251 240 163 180 182 176 158 145 136 129 123 119 116 111 109 107 107 104 103 104 102 105 89 64 25 347 330 307 306 294 274
248 190 187 215 94 352 110 220 250 243 247 259 232 213 248 182 191 182 176 159 147 138 133 128 126 122 120 118 113 114 113 110 107 100 92 82 64 13 348 334 329 318 306 295
236 220 185 142 143 153 180 212 248 216 215 242 222 197 256 171 174 177 171 159 150 144 143 145 146 141 139 137 135 127 119 116 108 96 84 77 61 355 320 320 318 313 305 300
213 221 193 182 196 187 195 215 237 272 263 318 202 231 235 76 84 152 158 153 150 153 154 157 156 148 146 146 143 130 123 121 112 103 83 61 35 343 307 311 306 298 291 290
226 202 118 149 200 237 197 213 250 307 298 278 242 188 116 101 85 122 145 148 155 159 157 158 154 152 151 149 143 135 131 125 120 113 82 41 345 314 307 304 297 290 289 292
263 198 136 102 102 258 288 264 173 199 247 261 257 209 186 173 179 174 162 159 159 158 158 159 158 155 150 145 140 137 135 137 136 111 67 328 306 307 304 300 296 294 295 297
233 243 143 160 201 200 193 231 226 231 262 272 293 346 34 157 169 175 175 166 163 162 162 160 157 151 144 142 148 149 146 146 145 158 296 300 299 302 299 294 292 296 298 300
200 242 212 186 174 197 198 205 205 216 240 224 262 289 47 98 135 156 162 159 158 158 159 156 153 149 151 157 161 162 167 172 180 216 287 291 292 293 293 293 297 300 299 296
178 209 221 163 191 206 223 223 225 245 288 263 244 237 97 112 122 136 146 150 149 151 152 152 154 160 163 163 164 168 171 169 181 256 283 286 288 291 292 294 297 298 295 293
193 229 228 220 157 165 195 206 211 213 220 239 237 241 202 182 168 159 151 152 151 154 155 156 160 162 155 156 165 169 170 173 215 261 274 279 282 286 289 291 292 290 289 290
184 248 257 261 84 154 205 201 201 214 226 235 250 259 237 190 179 171 161 156 153 154 158 161 161 157 152 158 160 149 172 217 243 271 276 277 282 287 287 287 286 286 286 287
193 244 260 251 173 234 263 237 220 222 232 243 263 273 296 120 141 151 157 158 159 160 161 158 151 147 148 144 134 127 237 264 275 277 277 281 284 283 282 282 284 285 285 285
180 209 199 238 160 276 254 229 224 223 220 221 243 254 188 147 157 168 163 156 157 153 149 148 148 146 134 126 121 196 266 300 291 279 278 279 279 280 281 284 287 285 286 286
183 195 200 194 146 238 242 145 206 231 240 223 226 194 150 139 119 102 127 144 145 138 134 133 128 123 121 121 129 173 286 285 279 276 276 275 276 279 282 284 283 283 282 284
346 184 173 172 222 263 247 194 177 205 262 228 219 194 139 107 84 73 99 108 118 118 116 116 115 118 127 160 192 245 278 278 275 273 273 275 278 281 284 284 283 283 283 284
333 301 174 175 207 237 238 123 95 116 270 238 182 164 141 126 162 212 135 109 104 104 105 109 110 114 150 243 26 284 278 278 275 273 275 280 281 280 281 279 280 281 280 281
160 189 202 197 218 254 191 147 131 174 241 112 133 148 151 167 175 134 118 110 111 112 114 116 122 165 229 271 292 273 273 270 271 278 284 285 282 279 278 279 279 280 281 282
173 178 194 188 214 244 163 153 187 205 151 135 139 142 140 124 113 115 115 118 121 125 130 130 146 254 269 268 265 268 270 272 281 285 284 282 280 281 284 282 282 281 284 286
190 189 190 195 211 212 162 175 156 131 148 146 138 126 128 132 136 131 131 134 137 139 147 159 219 265 273 269 266 273 278 283 285 284 282 281 282 280 280 282 286 288 286 285
203 157 201 242 214 174 180 161 159 167 156 135 127 125 129 136 136 137 139 139 141 147 172 210 256 272 280 282 278 273 277 279 280 281 282 283 285 286 284 283 283 284 284 285
169 160 195 240 228 156 197 198 180 162 134 123 116 118 126 128 132 134 136 138 143 158 202 246 264 271 276 279 277 276 278 280 280 280 282 285 284 286 287 284 280 284 275 279
167 171 186 215 204 186 201 184 166 158 156 144 131 119 112 120 127 124 129 131 137 198 256 269 268 269 275 279 281 282 280 278 279 282 283 284 285 285 284 288 290 283 284 291
Height
1523 1526 1526 1523 1520 1520 1522 1525 1525 1519 1515 1516 1518 1515 1510 1509 1511 1513 1516 1518 1520 1521 1521 1521 1520 1520 1521 1522 1523 1525 1526 1529 1530 1532 1533 1535 1536 1536 1537 1537 1537 1536 1536 1536
1521 1523 1518 1516 1517 1519 1522 1527 1525 1518 1513 1515 1515 1512 1505 1505 1507 1509 1513 1516 1519 1521 1521 1522 1521 1521 1522 1523 1524 1525 1527 1529 1530 1531 1533 1534 1535 1535 1535 1535 1535 1534 1533 1532
1517 1514 1513 1514 1517 1521 1523 1525 1523 1520 1515 1513 1515 1513 1502 1501 1504 1507 1511 1514 1517 1520 1521 1521 1522 1522 1523 1524 1525 1526 1528 1529 1530 1531 1532 1533 1533 1534 1533 1533 1532 1531 1530 1529
1510 1508 1511 1514 1516 1518 1523 1515 1516 1518 1523 1521 1514 1522 1504 1502 1504 1506 1509 1513 1516 1518 1520 1521 1521 1522 1523 1524 1526 1527 1528 1529 1530 1531 1531 1532 1532 1532 1531 1531 1529 1528 1527 1526
1506 1506 1510 1514 1513 1514 1515 1516 1517 1518 1522 1525 1515 1520 1504 1499 1504 1505 1507 1510 1514 1516 1518 1520 1521 1522 1523 1525 1526 1527 1528 1529 1529 1530 1530 1530 1530 1530 1529 1528 1527 1525 1524 1523
1503 1503 1506 1508 1510 1512 1514 1516 1518 1519 1524 1530 1509 1514 1504 1496 1495 1498 1503 1507 1511 1514 1517 1519 1520 1521 1523 1524 1526 1527 1528 1528 1529 1529 1529 1528 1528 1527 1526 1525 1523 1522 1521 1519
1505 1503 1504 1506 1512 1514 1516 1522 1529 1530 1534 1523 1494 1500 1496 1483 1483 1489 1496 1502 1507 1512 1515 1517 1519 1520 1522 1523 1525 1526 1527 1527 1527 1527 1527 1526 1525 1524 1523 1521 1520 1518 1516 1515
1505 1504 1499 1502 1506 1511 1515 1516 1525 1525 1519 1507 1504 1502 1490 1482 1482 1486 1492 1498 1504 1509 1513 1515 1517 1519 1521 1522 1523 1524 1525 1525 1525 1525 1524 1524 1522 1521 1520 1518 1516 1514 1512 1510
1494 1498 1493 1496 1500 1504 1508 1512 1506 1514 1511 1511 1500 1490 1491 1485 1486 1487 1491 1496 1501 1506 1510 1513 1516 1517 1519 1521 1522 1523 1523 1523 1523 1522 1522 1521 1519 1518 1516 1514 1512 1510 1507 1505
1487 1493 1498 1500 1501 1503 1504 1501 1509 1516 1519 1517 1496 1489 1491 1491 1489 1489 1492 1495 1500 1504 1508 1511 1514 1516 1517 1518 1520 1520 1521 1521 1520 1520 1519 1517 1516 1514 1512 1510 1507 1505 1502 1499
1486 1494 1501 1503 1503 1502 1504 1504 1503 1504 1503 1513 1510 1496 1481 1482 1483 1487 1489 1493 1497 1502 1505 1509 1511 1513 1515 1516 1517 1518 1518 1518 1517 1516 1515 1514 1512 1510 1508 1505 1502 1500 1497 1494
1483 1489 1494 1496 1491 1491 1494 1496 1500 1508 1504 1501 1507 1500 1480 1479 1480 1484 1488 1492 1496 1500 1504 1507 1509 1511 1512 1514 1514 1515 1515 1515 1514 1513 1511 1509 1508 1505 1503 1500 1497 1494 1491 1488
1481 1488 1496 1499 1500 1495 1493 1491 1491 1494 1498 1503 1506 1497 1483 1481 1482 1484 1486 1490 1494 1498 1502 1504 1507 1508 1510 1511 1512 1512 1512 1511 1510 1509 1507 1505 1503 1500 1498 1495 1492 1489 1485 1481
1477 1482 1487 1490 1486 1487 1490 1488 1488 1493 1501 1499 1495 1487 1485 1482 1482 1484 1486 1489 1492 1496 1499 1502 1504 1506 1507 1508 1509 1509 1508 1507 1506 1505 1503 1500 1498 1495 1493 1489 1486 1483 1479 1475
1478 1481 1478 1476 1476 1477 1480 1482 1485 1489 1488 1492 1484 1480 1477 1477 1479 1481 1483 1487 1491 1494 1497 1499 1501 1503 1504 1505 1505 1505 1504 1503 1502 1500 1498 1496 1493 1490 1487 1484 1480 1476 1472 1469
1477 1480 1477 1478 1477 1478 1480 1478 1479 1482 1482 1482 1480 1478 1472 1473 1475 1478 1481 1484 1487 1491 1494 1496 1498 1500 1501 1501 1501 1501 1500 1499 1498 1496 1493 1491 1488 1485 1481 1478 1474 1470 1466 1462
1476 1478 1480 1484 1479 1481 1485 1474 1474 1474 1472 1474 1478 1474 1471 1473 1474 1476 1479 1481 1485 1488 1491 1493 1495 1496 1497 1498 1497 1497 1496 1495 1493 1491 1488 1485 1482 1479 1475 1472 1468 1463 1459 1455
1471 1475 1479 1484 1485 1496 1473 1462 1462 1465 1464 1465 1466 1467 1469 1471 1474 1476 1478 1480 1483 1486 1488 1490 1492 1493 1494 1494 1493 1492 1491 1490 1488 1485 1483 1480 1476 1473 1469 1465 1461 1457 1452 1448
1468 1472 1480 1487 1488 1480 1465 1462 1462 1465 1464 1460 1462 1464 1467 1470 1473 1476 1477 1479 1481 1483 1486 1487 1489 1490 1490 1490 1489 1488 1487 1485 1483 1480 1477 1474 1471 1467 1463 1459 1455 1450 1445 1441
1470 1470 1477 1484 1487 1486 1464 1462 1460 1464 1468 1458 1458 1461 1466 1470 1478 1476 1475 1477 1479 1481 1483 1485 1486 1486 1486 1486 1485 1483 1482 1480 1477 1475 1472 1469 1465 1461 1457 1452 1448 1443 1438 1433
1473 1474 1477 1480 1483 1474 1460 1460 1462 1473 1466 1459 1458 1460 1464 1468 1471 1472 1473 1476 1478 1480 1481 1482 1483 1483 1482 1482 1480 1479 1477 1474 1472 1469 1466 1463 1459 1455 1450 1445 1441 1436 1431 1426
1465 1471 1473 1475 1479 1474 1458 1459 1462 1461 1458 1458 1459 1461 1463 1466 1468 1470 1472 1474 1476 1477 1479 1479 1479 1479 1479 1477 1476 1473 1471 1469 1466 1463 1460 1456 1452 1448 1443 1438 1434 1429 1424 1419
1454 1456 1457 1460 1460 1453 1452 1453 1454 1455 1457 1457 1459 1460 1462 1465 1467 1469 1471 1473 1474 1475 1476 1476 1476 1475 1474 1473 1471 1468 1466 1463 1460 1457 1453 1449 1445 1441 1436 1432 1426 1422 1417 1412
1448 1448 1450 1451 1449 1449 1450 1451 1452 1454 1455 1456 1457 1459 1461 1463 1465 1467 1469 1470 1472 1472 1473 1473 1472 1471 1469 1468 1466 1463 1460 1457 1454 1449 1445 1441 1437 1432 1428 1424 1419 1415 1410 1405
1441 1446 1448 1449 1446 1447 1448 1449 1450 1452 1453 1454 1456 1458 1459 1461 1463 1465 1467 1468 1469 1469 1469 1469 1468 1466 1464 1462 1460 1458 1455 1451 1447 1442 1438 1434 1430 1425 1420 1415 1412 1407 1402 1399
1438 1442 1446 1445 1442 1444 1444 1445 1448 1449 1451 1452 1454 1456 1458 1460 1461 1463 1464 1465 1466 1466 1466 1465 1463 1461 1459 1457 1454 1451 1448 1445 1440 1435 1430 1426 1422 1417 1412 1407 1401 1397 1395 1390